When you browse on this site, cookies collect data to enhance your experience and personalize the content and advertising you see.
Visit our Privacy Policy to learn more. By continuing to use the site, you agree to this use of cookies and data.
  • In Österreich
  • Länderverzeichnis
  • Für 7 Tage
  • Wassertemperatur
  • Wetterkarte
  • News
  • Widgets
  • user-avatar
    Anmelden

    Stündliche Wetter Senitsa

    Heute, 22 Februar, Samstag

    Zeit Temperatur Niederschläge Wind Luftdruck Luftfeuchtigkeit
    00:00 -3°C° 0 mm 2 m/S 683 mmHg 80%
    01:00 -4°C° 0 mm 2 m/S 683 mmHg 80%
    02:00 -4°C° 0 mm 2 m/S 683 mmHg 80%
    03:00 -4°C° 0 mm 2 m/S 683 mmHg 81%
    04:00 -2°C° 0 mm 1 m/S 683 mmHg 81%
    05:00 -2°C° 0 mm 1 m/S 683 mmHg 81%
    06:00 -2°C° 0 mm 1 m/S 684 mmHg 80%
    07:00 -2°C° 0 mm 1 m/S 684 mmHg 78%
    08:00 0°C° 0 mm 1 m/S 684 mmHg 69%
    09:00 -1°C° 0 mm 2 m/S 685 mmHg 60%
    10:00 +1°C° 0 mm 2 m/S 685 mmHg 50%
    11:00 +4°C° 0 mm 1 m/S 686 mmHg 46%
    12:00 +5°C° 0 mm 1 m/S 686 mmHg 41%
    13:00 +6°C° 0 mm 1 m/S 686 mmHg 35%
    14:00 +6°C° 0 mm 1 m/S 686 mmHg 38%
    15:00 +5°C° 0 mm 1 m/S 685 mmHg 40%
    16:00 +5°C° 0 mm 1 m/S 685 mmHg 42%
    17:00 +4°C° 0 mm 1 m/S 684 mmHg 47%
    18:00 +2°C° 0 mm 1 m/S 684 mmHg 51%
    19:00 +1°C° 0 mm 1 m/S 684 mmHg 56%
    20:00 +1°C° 0 mm 1 m/S 684 mmHg 55%
    21:00 +1°C° 0 mm 1 m/S 684 mmHg 54%
    22:00 +1°C° 0 mm 1 m/S 684 mmHg 53%
    23:00 +2°C° 0 mm 1 m/S 684 mmHg 52%

    Morgen, 23 Februar, Sonntag

    Zeit Temperatur Niederschläge Wind Luftdruck Luftfeuchtigkeit
    00:00 +2°C° 0 mm 1 m/S 684 mmHg 51%
    01:00 +2°C° 0 mm 1 m/S 684 mmHg 50%
    02:00 +3°C° 0 mm 1 m/S 683 mmHg 47%
    03:00 +3°C° 0 mm 1 m/S 683 mmHg 44%
    04:00 +3°C° 0 mm 1 m/S 682 mmHg 41%
    05:00 +3°C° 0 mm 1 m/S 682 mmHg 40%
    06:00 +4°C° 0 mm 1 m/S 682 mmHg 38%
    07:00 +4°C° 0 mm 1 m/S 682 mmHg 36%
    08:00 +6°C° 0 mm 1 m/S 683 mmHg 37%
    09:00 +8°C° 0 mm 1 m/S 683 mmHg 38%
    10:00 +10°C° 0 mm 1 m/S 683 mmHg 39%
    11:00 +11°C° 0 mm 1 m/S 683 mmHg 40%
    12:00 +12°C° 0 mm 1 m/S 683 mmHg 40%
    13:00 +13°C° 0 mm 1 m/S 683 mmHg 41%
    14:00 +12°C° 0 mm 1 m/S 682 mmHg 47%
    15:00 +11°C° 0 mm 1 m/S 681 mmHg 53%
    16:00 +11°C° 0 mm 1 m/S 680 mmHg 59%
    17:00 +8°C° 0 mm 2 m/S 680 mmHg 64%
    18:00 +6°C° 0 mm 2 m/S 680 mmHg 69%
    19:00 +5°C° 0 mm 2 m/S 680 mmHg 74%
    20:00 +4°C° 0 mm 2 m/S 679 mmHg 75%
    21:00 +4°C° 0 mm 2 m/S 679 mmHg 76%
    22:00 +4°C° 0 mm 2 m/S 678 mmHg 77%
    23:00 +3°C° 0 mm 2 m/S 678 mmHg 78%

    übermorgen, 24 Februar, Montag

    Zeit Temperatur Niederschläge Wind Luftdruck Luftfeuchtigkeit
    00:00 +3°C° 0 mm 2 m/S 678 mmHg 79%
    01:00 +3°C° 0 mm 2 m/S 678 mmHg 81%
    02:00 +3°C° 0 mm 2 m/S 678 mmHg 82%
    03:00 +3°C° 0 mm 2 m/S 678 mmHg 83%
    04:00 +4°C° 0 mm 1 m/S 678 mmHg 84%
    05:00 +4°C° 0 mm 1 m/S 678 mmHg 83%
    06:00 +4°C° 0 mm 1 m/S 678 mmHg 83%
    07:00 +3°C° 0 mm 0 m/S 679 mmHg 83%
    08:00 +5°C° 0 mm 1 m/S 680 mmHg 78%
    09:00 +7°C° 0 mm 1 m/S 681 mmHg 74%
    10:00 +7°C° 0 mm 2 m/S 681 mmHg 69%
    11:00 +7°C° 0 mm 2 m/S 681 mmHg 70%
    12:00 +7°C° 0 mm 2 m/S 681 mmHg 70%
    13:00 +8°C° 0 mm 2 m/S 681 mmHg 71%
    14:00 +9°C° 0 mm 1 m/S 681 mmHg 72%
    15:00 +9°C° 0 mm 1 m/S 680 mmHg 73%
    16:00 +8°C° 0 mm 1 m/S 680 mmHg 74%
    17:00 +7°C° 0 mm 1 m/S 679 mmHg 79%
    18:00 +6°C° 0 mm 1 m/S 679 mmHg 85%
    19:00 +5°C° 0 mm 1 m/S 679 mmHg 91%
    20:00 +5°C° 0 mm 1 m/S 679 mmHg 90%
    21:00 +4°C° 0 mm 2 m/S 678 mmHg 90%
    22:00 +4°C° 0 mm 2 m/S 678 mmHg 89%
    23:00 +4°C° 0 mm 2 m/S 678 mmHg 88%

    25 Februar, Dienstag

    Zeit Temperatur Niederschläge Wind Luftdruck Luftfeuchtigkeit
    00:00 +3°C° 0 mm 2 m/S 677 mmHg 88%
    01:00 +3°C° 0 mm 2 m/S 677 mmHg 87%
    02:00 +3°C° 0 mm 2 m/S 676 mmHg 87%
    03:00 +3°C° 0 mm 2 m/S 675 mmHg 86%
    04:00 +3°C° 0 mm 2 m/S 675 mmHg 86%
    05:00 +3°C° 0 mm 2 m/S 675 mmHg 85%
    06:00 +3°C° 0 mm 2 m/S 675 mmHg 85%
    07:00 +3°C° 0 mm 2 m/S 675 mmHg 85%
    08:00 +5°C° 0 mm 2 m/S 675 mmHg 79%
    09:00 +7°C° 0 mm 2 m/S 675 mmHg 73%
    10:00 +8°C° 0 mm 2 m/S 675 mmHg 66%
    11:00 +9°C° 0 mm 3 m/S 675 mmHg 65%
    12:00 +10°C° 0 mm 3 m/S 675 mmHg 63%
    13:00 +10°C° 0 mm 3 m/S 674 mmHg 62%
    14:00 +10°C° 0 mm 3 m/S 674 mmHg 66%
    15:00 +8°C° 0 mm 4 m/S 673 mmHg 70%
    16:00 +7°C° 0 mm 4 m/S 672 mmHg 74%
    17:00 +7°C° 0 mm 4 m/S 672 mmHg 77%
    18:00 +6°C° 0 mm 4 m/S 672 mmHg 80%
    19:00 +5°C° 0 mm 3 m/S 671 mmHg 83%
    20:00 +5°C° 0 mm 3 m/S 671 mmHg 85%
    21:00 +4°C° 0 mm 3 m/S 671 mmHg 87%
    22:00 +5°C° 0 mm 2 m/S 670 mmHg 88%
    23:00 +4°C° 0 mm 3 m/S 670 mmHg 89%

    26 Februar, Mittwoch

    Zeit Temperatur Niederschläge Wind Luftdruck Luftfeuchtigkeit
    00:00 +4°C° 0 mm 3 m/S 669 mmHg 89%
    01:00 +4°C° 0 mm 3 m/S 669 mmHg 89%
    02:00 +4°C° 0 mm 3 m/S 668 mmHg 90%
    03:00 +4°C° 0 mm 3 m/S 667 mmHg 90%
    04:00 +3°C° 0 mm 3 m/S 667 mmHg 90%
    05:00 +4°C° 0.1 mm 3 m/S 666 mmHg 90%
    06:00 +4°C° 0.1 mm 3 m/S 666 mmHg 90%
    07:00 +4°C° 0.1 mm 3 m/S 665 mmHg 90%
    08:00 +4°C° 0 mm 3 m/S 665 mmHg 84%
    09:00 +5°C° 0 mm 4 m/S 665 mmHg 79%
    10:00 +6°C° 0 mm 5 m/S 665 mmHg 74%
    11:00 +6°C° 0.1 mm 5 m/S 665 mmHg 75%
    12:00 +6°C° 0.1 mm 5 m/S 664 mmHg 75%
    13:00 +6°C° 0.1 mm 5 m/S 664 mmHg 76%
    14:00 +6°C° 0.2 mm 5 m/S 664 mmHg 73%
    15:00 +6°C° 0.2 mm 4 m/S 663 mmHg 71%
    16:00 +7°C° 0.2 mm 3 m/S 663 mmHg 68%
    17:00 +5°C° 0.3 mm 3 m/S 663 mmHg 76%
    18:00 +4°C° 0.3 mm 2 m/S 663 mmHg 83%
    19:00 +4°C° 0.3 mm 1 m/S 663 mmHg 91%
    20:00 +4°C° 0.2 mm 1 m/S 663 mmHg 92%
    21:00 +4°C° 0.2 mm 1 m/S 663 mmHg 93%
    22:00 +3°C° 0.2 mm 1 m/S 663 mmHg 93%
    23:00 +3°C° 0.9 mm 1 m/S 663 mmHg 95%

    27 Februar, Donnerstag

    Zeit Temperatur Niederschläge Wind Luftdruck Luftfeuchtigkeit
    00:00 +3°C° 0.9 mm 1 m/S 663 mmHg 96%
    01:00 +2°C° 0.9 mm 1 m/S 663 mmHg 98%
    02:00 +1°C° 3.5 mm 2 m/S 663 mmHg 98%
    03:00 -1°C° 3.5 mm 3 m/S 664 mmHg 98%
    04:00 -3°C° 3.5 mm 4 m/S 664 mmHg 98%
    05:00 -5°C° 2.1 mm 5 m/S 664 mmHg 97%
    06:00 -6°C° 2.1 mm 5 m/S 665 mmHg 96%
    07:00 -6°C° 2.1 mm 6 m/S 665 mmHg 95%
    08:00 -6°C° 0.9 mm 6 m/S 666 mmHg 94%
    09:00 -6°C° 0.9 mm 6 m/S 667 mmHg 94%
    10:00 -6°C° 0.9 mm 7 m/S 669 mmHg 93%
    11:00 -6°C° 0.4 mm 7 m/S 669 mmHg 91%
    12:00 -6°C° 0.4 mm 7 m/S 670 mmHg 89%
    13:00 -4°C° 0.4 mm 7 m/S 670 mmHg 87%
    14:00 -4°C° 0.1 mm 7 m/S 671 mmHg 85%
    15:00 -4°C° 0.1 mm 6 m/S 671 mmHg 83%
    16:00 -4°C° 0.1 mm 6 m/S 672 mmHg 81%
    17:00 -5°C° 0 mm 5 m/S 672 mmHg 83%
    18:00 -6°C° 0 mm 5 m/S 673 mmHg 84%
    19:00 -8°C° 0 mm 4 m/S 673 mmHg 85%
    20:00 -8°C° 0 mm 4 m/S 674 mmHg 85%
    21:00 -8°C° 0 mm 4 m/S 675 mmHg 86%
    22:00 -8°C° 0 mm 3 m/S 675 mmHg 86%
    23:00 -8°C° 0 mm 3 m/S 675 mmHg 88%
    Mehr zeigen